[[{"header":{"parameterUnit":"m.s-1","parameterCategory":1,"la1":30.2991,"la2":30.254,"lo1":-89.0895,"lo2":-89.0444,"dy":0.0017,"dx":0.0017,"nx":28,"ny":28,"refTime":"2025-07-20T03:00:00:Z","depth":0,"parameterNumber":2,"parameterNumberName":"U-component_of_WINDS"},"data":[0,0,0,0,0,0,0,0,0,0,0,0,0,0,0,0,0,0,0,0,0,0,0,0,0,0,0,0,0,0,0,0,0,0,0,0,0,0,0,0,0,0,0,0,0,0,0,0,0,0,0,0,0,0,0,0,0,0,2.2597,2.2597,0,2.2589,2.2589,2.2588,2.253,2.2529,2.2528,2.2526,2.2517,2.2518,2.2519,0,0,0,0,0,0,0,0,0,0,0,0,0,2.2562,2.2563,2.2597,2.2597,2.2597,2.2589,2.2589,2.2588,2.2531,2.2529,2.2527,2.2526,2.2517,2.2518,2.252,0,0,0,0,0,0,0,0,0,0,0,0,0,2.2568,2.2563,2.2597,2.2567,2.2564,2.2589,2.2589,2.2588,2.2531,2.2529,2.2527,2.2525,2.2517,2.2518,2.252,2.2572,0,0,2.2525,2.2525,0,0,0,0,0,0,0,0,2.2567,2.2569,2.2572,2.2569,2.2566,2.2558,2.2573,2.2583,2.2532,2.2544,2.2526,2.2524,2.2533,2.2533,2.2536,2.2572,2.2572,2.2525,2.2526,2.2527,2.2527,0,0,0,0,0,0,0,2.2567,2.2569,2.2594,2.2572,2.2568,2.2553,2.2552,2.2574,2.255,2.2542,2.2538,2.2538,2.2531,2.2535,2.2535,2.2571,2.2525,2.2526,2.2527,2.2528,2.2646,2.2648,0,0,0,0,0,0,2.2571,2.2569,2.2594,2.2593,2.2561,2.2556,2.2554,2.2563,2.255,2.2546,2.254,2.2535,2.2533,2.2533,2.2535,2.2592,2.2527,2.2528,2.2529,2.2644,2.2647,2.2649,0,0,0,0,0,0,2.257,2.2574,2.2594,2.258,2.2582,2.2559,2.2569,2.2564,2.2568,2.2548,2.2543,2.2548,2.2531,2.2532,2.2563,2.2591,2.2529,2.253,2.2642,2.2645,2.2648,2.271,0,0,0,0,0,0,2.257,2.2574,2.2594,2.2581,2.2583,2.2623,2.2571,2.2565,2.2571,2.2565,2.2554,2.2551,2.253,2.256,2.2564,2.2592,2.2532,2.2639,2.2643,2.2647,2.2705,2.2715,2.2724,0,0,0,0,0,2.2569,2.2613,2.2595,2.2599,2.2607,2.2625,2.2626,2.2601,2.2573,2.2593,2.258,2.2551,2.2588,2.2564,2.2568,2.2597,2.2637,2.2642,2.2647,2.2701,2.2713,2.2723,0,0,0,0,0,0,2.263,2.261,2.2591,2.2632,2.2631,2.2615,2.2639,2.2615,2.2621,2.2615,2.2583,2.2582,2.2616,2.261,2.2583,2.2645,2.2607,2.2613,2.2648,2.2659,2.2668,2.2667,2.2533,0,0,0,0,0,2.2649,2.2665,2.2647,2.2685,2.2685,2.2662,2.2669,2.265,2.2647,2.2646,2.2635,2.2633,2.2643,2.2651,2.2661,2.2705,2.27,2.2727,2.2736,2.2743,2.2748,2.2768,2.2779,2.2665,2.2665,2.2665,0,0,2.2687,2.2678,2.269,2.2697,2.2693,2.2709,2.2662,2.2682,2.2693,2.2649,2.2675,2.2668,2.2663,2.27,2.2715,2.2696,2.2779,2.275,2.2756,2.2756,2.2774,2.2785,2.2794,2.2669,2.2668,2.2667,0,0,2.2764,2.276,2.279,2.2787,2.2781,2.2766,2.2773,2.2761,2.2753,2.278,2.2746,2.2759,2.278,2.2776,2.2778,2.2852,2.2825,2.2856,2.2902,2.2922,2.2931,2.2939,2.2962,2.2971,2.2861,2.2862,2.2862,0,2.2812,2.2835,2.2808,2.2829,2.2832,2.2792,2.2821,2.2819,2.2818,2.282,2.2799,2.2821,2.2816,2.2849,2.2867,2.2871,2.2876,2.2856,2.2932,2.2939,2.2946,2.2968,2.2977,2.2865,2.2865,2.2864,2.2864,0,2.2892,2.2909,2.2934,2.2931,2.2937,2.2963,2.2938,2.2948,2.2928,2.2914,2.2941,2.2933,2.2938,2.2945,2.2927,2.2976,2.2963,2.2938,2.2898,2.2961,2.2981,2.2989,2.287,2.2869,2.2868,2.2867,0,0,2.3007,2.2989,2.2998,2.2995,2.2986,2.2998,2.3021,2.3026,2.3033,2.3033,2.3049,2.3067,2.3042,2.3044,2.3025,2.3043,2.3098,2.3014,2.3013,2.3027,2.3148,2.3165,2.3175,2.3081,2.3082,2.3084,2.3147,0,2.3078,2.3115,2.3091,2.3131,2.3145,2.3107,2.3126,2.3122,2.311,2.3119,2.3106,2.3117,2.3085,2.3085,2.3102,2.3088,2.3121,2.3083,2.3094,2.3094,2.3093,2.3186,2.3205,2.3265,2.3155,2.3156,2.3157,0,2.3166,2.3168,2.321,2.3195,2.32,2.3218,2.3219,2.3229,2.3223,2.3213,2.3214,2.3189,2.3209,2.3172,2.3198,2.3173,2.3176,2.317,2.3171,2.3169,2.3128,2.3183,2.3284,2.3292,2.317,2.3169,2.3168,0,2.3241,2.3255,2.3281,2.328,2.3265,2.3278,2.3272,2.3264,2.3268,2.3269,2.327,2.3275,2.3276,2.328,2.3256,2.3232,2.3284,2.3246,2.3274,2.3275,2.3284,2.3284,2.3384,2.3292,2.3292,2.3292,2.3291,0,2.3321,2.3347,2.3314,2.3329,2.3357,2.3329,2.3357,2.3347,2.334,2.3352,2.3321,2.3333,2.3303,2.3311,2.3294,2.3316,2.3318,2.3309,2.3303,2.331,2.331,2.3309,2.3303,2.3294,2.3294,2.3293,2.3293,0,2.3409,2.3388,2.3413,2.3396,2.3392,2.3413,2.3398,2.3411,2.3397,2.3412,2.3414,2.3392,2.34,2.3378,2.3384,2.3371,2.3402,2.3392,2.3404,2.3399,2.3428,2.3424,2.3528,2.3539,2.3443,2.3444,2.3445,0,2.346,2.3478,2.3463,2.3468,2.3464,2.3474,2.3477,2.345,2.3455,2.3448,2.3461,2.3467,2.347,2.3485,2.3469,2.3472,2.3459,2.3496,2.3459,2.3464,2.3456,2.3454,2.3454,2.3502,2.3503,2.3504,2.3505,0,2.3551,2.3539,2.3545,2.3546,2.355,2.3551,2.3548,2.3555,2.3526,2.3532,2.354,2.3542,2.3547,2.3552,2.3552,2.3545,2.3519,2.3517,2.3523,2.3528,2.3533,2.3528,2.3421,2.3514,2.3513,2.3512,2.3512,2.3512,2.3619,2.3633,2.3623,2.363,2.3625,2.3624,2.3634,2.3621,2.3627,2.3628,2.3612,2.3622,2.3614,2.3611,2.3607,2.3614,2.3597,2.3607,2.3608,2.361,2.3614,2.3535,2.3614,2.3614,2.3613,2.3613,2.3613,0,2.3706,2.3698,2.3704,2.3701,2.3706,2.3682,2.3678,2.3683,2.3693,2.3687,2.369,2.3698,2.3703,2.3687,2.3689,2.3697,2.3685,2.3698,2.3696,2.3694,2.363,2.3623,2.3708,2.3708,2.3708,2.3708,2.3708,2.3707,2.3751,2.3772,2.3759,2.3777,2.3769,2.3778,2.3777,2.3775,2.377,2.378,2.3783,2.3773,2.3762,2.3763,2.3765,2.376,2.3761,2.3778,2.3768,2.3708,2.3699,2.369,2.3683,2.3779,2.3779,2.3831,2.3832,2.3832]},{"header":{"parameterUnit":"m.s-1","parameterCategory":1,"la1":30.2991,"la2":30.254,"lo1":-89.0895,"lo2":-89.0444,"dy":0.0017,"dx":0.0017,"nx":28,"ny":28,"refTime":"2025-07-20T03:00:00:Z","depth":0,"parameterNumber":3,"parameterNumberName":"V-component_of_WINDS"},"data":[0,0,0,0,0,0,0,0,0,0,0,0,0,0,0,0,0,0,0,0,0,0,0,0,0,0,0,0,0,0,0,0,0,0,0,0,0,0,0,0,0,0,0,0,0,0,0,0,0,0,0,0,0,0,0,0,0,0,3.3388,3.3388,0,3.3463,3.3464,3.3464,3.3452,3.3451,3.3449,3.3448,3.3523,3.3526,3.3529,0,0,0,0,0,0,0,0,0,0,0,0,0,3.323,3.3233,3.3387,3.3388,3.3389,3.3463,3.3464,3.3465,3.3452,3.3451,3.3449,3.3448,3.3522,3.3526,3.353,0,0,0,0,0,0,0,0,0,0,0,0,0,3.3301,3.3234,3.3387,3.3392,3.3393,3.3462,3.3464,3.3465,3.3453,3.3451,3.3449,3.3447,3.3521,3.3525,3.353,3.3599,0,0,3.3545,3.3547,0,0,0,0,0,0,0,0,3.3297,3.3307,3.339,3.3392,3.3393,3.3446,3.3436,3.351,3.3453,3.343,3.3448,3.3446,3.3499,3.3505,3.3524,3.3602,3.3606,3.3545,3.3548,3.355,3.3552,0,0,0,0,0,0,0,3.3292,3.3304,3.3417,3.3392,3.3393,3.3389,3.3397,3.345,3.3474,3.3432,3.3431,3.344,3.3499,3.3519,3.3525,3.3607,3.3545,3.3549,3.3552,3.3554,3.3743,3.3745,0,0,0,0,0,0,3.3286,3.3299,3.3415,3.3419,3.3339,3.3394,3.3403,3.3431,3.3474,3.3478,3.3442,3.3439,3.3512,3.352,3.3528,3.3609,3.355,3.3555,3.3558,3.3741,3.3743,3.3746,0,0,0,0,0,0,3.3283,3.3297,3.3412,3.3359,3.3374,3.3399,3.3431,3.3434,3.3453,3.3481,3.3485,3.3458,3.3511,3.3521,3.3581,3.3612,3.3557,3.3561,3.3738,3.3742,3.3745,3.3774,0,0,0,0,0,0,3.3278,3.3296,3.3323,3.336,3.3377,3.3465,3.3433,3.3436,3.3462,3.3459,3.3497,3.3502,3.351,3.3574,3.3586,3.3618,3.3565,3.3736,3.374,3.3744,3.377,3.3778,3.3784,0,0,0,0,0,3.3273,3.3328,3.3324,3.3338,3.3411,3.3466,3.3476,3.3485,3.3465,3.3491,3.3509,3.3501,3.3607,3.358,3.3593,3.3627,3.3734,3.3739,3.3743,3.3767,3.3776,3.3784,0,0,0,0,0,0,3.3293,3.3333,3.3329,3.3398,3.3429,3.3464,3.3498,3.3494,3.3531,3.3527,3.3536,3.3544,3.3604,3.3622,3.3591,3.3695,3.3667,3.3675,3.3681,3.369,3.3697,3.369,3.3569,0,0,0,0,0,3.3306,3.3348,3.338,3.3438,3.3454,3.3474,3.3498,3.3502,3.3534,3.3547,3.3569,3.36,3.364,3.3666,3.3704,3.3773,3.378,3.3803,3.3809,3.3815,3.3821,3.3857,3.3866,3.3761,3.3761,3.3761,0,0,3.3332,3.3359,3.3385,3.3443,3.3467,3.351,3.3485,3.3531,3.3562,3.3554,3.3611,3.3628,3.3663,3.3727,3.3756,3.3743,3.3852,3.3821,3.3825,3.3828,3.3862,3.3872,3.3881,3.3765,3.3764,3.3764,0,0,3.3401,3.3427,3.3477,3.3502,3.3539,3.3551,3.3563,3.3599,3.361,3.3668,3.3662,3.3699,3.3768,3.3793,3.3814,3.3891,3.3884,3.3904,3.3939,3.3974,3.3982,3.3989,3.4015,3.4024,3.391,3.391,3.391,0,3.3429,3.3494,3.3503,3.355,3.3574,3.3569,3.3619,3.3642,3.369,3.3706,3.3691,3.3777,3.38,3.3869,3.3888,3.3906,3.3918,3.3899,3.398,3.3988,3.3995,3.4019,3.4029,3.3912,3.3912,3.3911,3.3911,0,3.3525,3.357,3.3605,3.3652,3.368,3.3728,3.3744,3.3772,3.3773,3.3787,3.3844,3.3872,3.3915,3.3932,3.3934,3.4,3.3991,3.3978,3.3951,3.4006,3.4029,3.4039,3.3915,3.3914,3.3913,3.3913,0,0,3.3609,3.3659,3.3672,3.3692,3.3732,3.3766,3.3813,3.3856,3.3879,3.3912,3.395,3.4008,3.3996,3.4021,3.4025,3.4056,3.4113,3.4039,3.404,3.405,3.4185,3.4194,3.4204,3.4109,3.411,3.4112,3.4182,0,3.3681,3.3764,3.3773,3.3848,3.3888,3.3883,3.3923,3.3952,3.3966,3.4001,3.4016,3.4056,3.4038,3.4053,3.4083,3.4099,3.414,3.4095,3.4143,3.4144,3.4133,3.4217,3.4226,3.4291,3.4191,3.4193,3.4194,0,3.3776,3.3811,3.3889,3.3922,3.3939,3.3976,3.4015,3.4049,3.408,3.4088,3.4115,3.4115,3.4162,3.4133,3.4197,3.4166,3.4187,3.4198,3.42,3.4204,3.4171,3.4221,3.4312,3.4321,3.4208,3.4207,3.4206,0,3.3827,3.3894,3.3949,3.3967,3.4007,3.4032,3.405,3.408,3.4104,3.4138,3.4154,3.4192,3.4213,3.4243,3.4253,3.4231,3.4315,3.4288,3.4322,3.4321,3.4338,3.4337,3.4432,3.4354,3.4354,3.4354,3.4354,0,3.3905,3.3952,3.3972,3.4006,3.4058,3.4068,3.4119,3.4136,3.4162,3.4198,3.4196,3.4229,3.4241,3.4276,3.4285,3.4335,3.4345,3.4351,3.4352,3.4351,3.4349,3.4363,3.4358,3.4357,3.4356,3.4355,3.4355,0,3.397,3.3986,3.4045,3.4078,3.4088,3.4125,3.4153,3.4184,3.4197,3.4243,3.4254,3.4274,3.4315,3.4328,3.4378,3.4383,3.4441,3.444,3.4431,3.4431,3.4463,3.4459,3.4568,3.4582,3.4497,3.4498,3.4498,0,3.4019,3.4055,3.4092,3.4116,3.4135,3.4174,3.4198,3.4209,3.4234,3.4272,3.4299,3.434,3.4373,3.4438,3.4457,3.4494,3.4492,3.4528,3.4498,3.4494,3.449,3.4487,3.449,3.4533,3.4534,3.4535,3.4535,0,3.4102,3.4107,3.4143,3.4182,3.4212,3.4242,3.4272,3.4292,3.4306,3.4335,3.4377,3.4402,3.4453,3.4492,3.453,3.4548,3.4543,3.4545,3.4554,3.4552,3.4544,3.4547,3.4445,3.4542,3.4541,3.4541,3.454,3.454,3.4159,3.419,3.422,3.426,3.4284,3.4311,3.4342,3.4359,3.4394,3.4436,3.444,3.4485,3.4514,3.4564,3.4584,3.4618,3.4607,3.4622,3.4625,3.4628,3.4629,3.454,3.4625,3.4625,3.4625,3.4625,3.4624,0,3.424,3.4259,3.4296,3.4337,3.4368,3.4362,3.4394,3.442,3.446,3.4488,3.452,3.4567,3.4606,3.4627,3.4665,3.4688,3.4687,3.4698,3.4695,3.4699,3.4637,3.4625,3.4698,3.4698,3.4698,3.4698,3.4698,3.4698,3.4286,3.4338,3.4347,3.441,3.4429,3.4473,3.4491,3.4516,3.4538,3.4591,3.4623,3.4637,3.4661,3.4701,3.4735,3.474,3.4754,3.4765,3.4769,3.4711,3.4703,3.4696,3.4684,3.4768,3.4769,3.4827,3.4828,3.4828]}]]